FW5120 Weather Reports


time (UTC)temp
C
wind
direction
speed
KPH
gust
KPH
rain 1hr
cm
rain 24hr
cm
rain mn
cm
humidity
%
barometer
mb
20260506214547 13 252 0.0 6.4 0.00 0.00 0.00 84 1013.5
20260506213044 13 261 0.0 6.4 0.00 0.00 0.00 83 1013.5
20260506211550 14 355 4.8 8.0 0.00 0.00 0.00 83 1013.2
20260506210043 14 240 3.2 12.9 0.00 0.00 0.00 85 1013.2
20260506204543 13 186 1.6 8.0 0.00 0.00 0.00 88 1013.0
20260506203042 13 188 3.2 4.8 0.00 0.00 0.00 87 1012.9
20260506201542 13 185 1.6 4.8 0.00 0.00 0.00 85 1012.8
20260506200041 14 182 0.0 4.8 0.00 0.00 0.00 84 1012.9
20260506194540 15 250 0.0 4.8 0.00 0.00 0.00 82 1013.0
20260506193039 16 276 3.2 8.0 0.00 0.00 0.00 80 1012.8
20260506191540 15 197 0.0 6.4 0.00 0.00 0.00 83 1012.6
20260506190038 15 236 0.0 4.8 0.00 0.00 0.00 85 1012.4
20260506184537 15 242 1.6 6.4 0.00 0.00 0.00 86 1012.1
20260506183037 15 257 0.0 1.6 0.00 0.00 0.00 84 1012.0
20260506181538 16 257 0.0 3.2 0.00 0.00 0.00 81 1012.0
20260506180036 17 257 0.0 3.2 0.00 0.00 0.00 79 1011.9
20260506174537 17 259 1.6 4.8 0.00 0.00 0.00 77 1011.9
20260506173035 18 263 1.6 6.4 0.00 0.00 0.00 74 1011.9
20260506171534 18 236 4.8 12.9 0.00 0.00 0.00 72 1011.9
20260506170033 19 258 6.4 11.3 0.00 0.00 0.00 70 1011.8
20260506164534 19 220 3.2 6.4 0.00 0.00 0.00 71 1011.7
20260506163034 19 255 1.6 9.7 0.00 0.00 0.00 71 1011.8
20260506161535 20 220 4.8 8.0 0.00 0.00 0.00 72 1011.8
20260506160030 20 209 3.2 9.7 0.00 0.00 0.00 71 1012.0
20260506154530 20 219 3.2 6.4 0.00 0.00 0.00 70 1012.2
20260506153040 20 227 4.8 11.3 0.00 0.00 0.00 68 1012.2
20260506151528 20 271 4.8 20.9 0.00 0.00 0.00 69 1012.2
20260506150028 20 207 3.2 16.1 0.00 0.00 0.00 68 1012.3
20260506144546 20 252 8.0 14.5 0.00 0.00 0.00 69 1012.2
20260506143026 21 49 1.6 19.3 0.00 0.00 0.00 68 1012.2
20260506141524 21 267 0.0 11.3 0.00 0.00 0.00 69 1012.5
20260506140035 19 236 3.2 12.9 0.00 0.00 0.00 71 1012.5
20260506134530 19 221 0.0 8.0 0.00 0.00 0.00 73 1012.4
20260506133022 19 232 3.2 8.0 0.00 0.00 0.00 72 1012.5
20260506131527 19 231 1.6 6.4 0.00 0.00 0.00 73 1012.6
20260506130018 19 257 4.8 11.3 0.00 0.00 0.00 72 1012.5
20260506124519 20 236 3.2 11.3 0.00 0.00 0.00 69 1012.5
20260506123028 20 256 3.2 9.7 0.00 0.00 0.00 68 1012.6
20260506121516 21 227 3.2 14.5 0.00 0.00 0.00 69 1012.6
20260506120024 20 240 3.2 14.5 0.00 0.00 0.00 69 1012.8
20260506114519 20 244 4.8 14.5 0.00 0.03 0.00 70 1012.9
20260506113012 19 244 6.4 14.5 0.00 0.03 0.00 71 1013.1
20260506111510 18 234 9.7 14.5 0.00 0.03 0.00 71 1013.3
20260506110010 18 248 4.8 11.3 0.00 0.03 0.00 72 1013.4
20260506104513 18 239 4.8 16.1 0.00 0.03 0.00 73 1013.5
20260506103010 18 288 6.4 20.9 0.00 0.03 0.00 70 1013.7
20260506101508 18 263 1.6 11.3 0.00 0.03 0.00 70 1013.9
20260506100016 17 258 3.2 12.9 0.00 0.03 0.00 71 1014.1
20260506094508 18 261 4.8 14.5 0.00 0.03 0.00 69 1014.2
20260506093007 18 246 4.8 11.3 0.00 0.03 0.00 71 1014.3
20260506091506 18 220 4.8 16.1 0.00 0.03 0.00 72 1014.3
20260506090005 19 256 3.2 14.5 0.00 0.03 0.00 68 1014.2
20260506084506 20 207 8.0 17.7 0.00 0.03 0.00 68 1013.9
20260506083006 21 257 9.7 16.1 0.00 0.03 0.00 66 1013.7
20260506081507 20 284 1.6 8.0 0.00 0.03 0.00 67 1013.4
20260506073058 20 268 0.0 8.0 0.00 0.03 0.00 67 1013.5
20260506071555 20 260 1.6 8.0 0.00 0.03 0.00 67 1013.7
20260506061548 18 82 0.0 4.8 0.00 0.03 0.00 73 1013.9
20260506044545 13 195 4.8 11.3 0.00 0.03 0.00 85 1013.9
20260506043031 12 242 0.0 1.6 0.00 0.03 0.00 86 1014.2
20260506041532 12 242 1.6 3.2 0.00 0.03 0.00 85 1014.2
20260506040029 12 242 1.6 4.8 0.00 0.03 0.00 83 1014.1
20260506034529 13 225 0.0 1.6 0.00 0.03 0.00 81 1014.0
20260506033030 13 225 0.0 3.2 0.00 0.03 0.00 80 1014.0
20260506031541 13 225 0.0 4.8 0.00 0.03 0.00 80 1014.2
20260506030031 13 225 1.6 4.8 0.00 0.03 0.00 80 1014.2
20260506024530 13 224 0.0 4.8 0.00 0.03 0.00 78 1014.2
20260506023026 13 244 1.6 4.8 0.00 0.03 0.00 78 1014.3
20260506021525 13 241 3.2 6.4 0.00 0.03 0.00 80 1014.2
20260506020025 13 254 0.0 6.4 0.00 0.03 0.00 77 1014.3
20260506014524 13 245 4.8 8.0 0.00 0.03 0.00 77 1014.2
20260506013023 13 252 4.8 9.7 0.00 0.03 0.00 77 1014.1
20260506011521 14 220 3.2 6.4 0.00 0.03 0.00 76 1014.2
20260506010045 14 250 3.2 9.7 0.00 0.03 0.00 75 1014.3
20260506004517 13 240 6.4 11.3 0.00 0.03 0.00 77 1014.3
20260506003015 13 241 3.2 11.3 0.00 0.03 0.00 79 1014.5
20260506001514 13 254 3.2 12.9 0.00 0.03 0.00 80 1014.4
20260506000014 12 261 3.2 8.0 0.00 0.03 0.00 82 1014.4
20260505234509 12 263 4.8 11.3 0.00 0.03 0.00 83 1014.3
20260505233008 12 263 3.2 11.3 0.00 0.03 0.00 85 1014.5
20260505231510 11 252 0.0 3.2 0.00 0.03 0.00 84 1014.5
20260505230005 12 252 1.6 4.8 0.00 0.03 0.00 85 1014.6
20260505224503 11 228 4.8 9.7 0.00 0.03 0.00 88 1014.7
20260505223100 10 167 3.2 4.8 0.00 0.03 0.00 89 1014.5
20260505221557 10 261 1.6 6.4 0.00 0.03 0.00 87 1014.8
20260505220054 11 259 3.2 9.7 0.00 0.03 0.00 87 1014.9